Weather History for Frederick, MD

Change the Weather History Date:

Thursday, January 31, 2013

  Actual Average (KHGR) Record (KHGR)
Temperature  
Mean Temperature 40 °F -  
Max Temperature 53 °F 37 °F 67 °F (2012)
Min Temperature 28 °F 23 °F 8 °F (2004)
Degree Days  
Heating Degree Days 24    
Moisture  
Dew Point 30 °F    
Average Humidity 68    
Maximum Humidity 100    
Minimum Humidity 45    
Precipitation  
Precipitation 0.12 in - - ()
Sea Level Pressure  
Sea Level Pressure 29.59 in    
Wind  
Wind Speed 12 mph (West)    
Max Wind Speed 29 mph    
Max Gust Speed 45 mph    
Visibility 9 miles    
Events Rain    
Averages and records for this station are not official NWS values.
T = Trace of Precipitation, MM = Missing Value Source: NWS Daily Summary

Daily Weather History Graph

Daily Weather History Graph

Search for Another Location

Airport:

Trip Planner

Search our weather history database for the weather conditions in past years. The results will help you decide how hot, cold, wet, or windy it might be!

Date:

Astronomy

Jan. 31, 2013 Rise Set
Actual Time 7:17 AM EST 5:29 PM EST
Civil Twilight 6:49 AM EST 5:57 PM EST
Nautical Twilight 6:16 AM EST 6:29 PM EST
Astronomical Twilight 5:45 AM EST 7:01 PM EST
Moon 10:27 PM EST (1/31) 9:17 AM EST (1/31)
Length of Visible Light 11h 08m
Length of Day
10h 11m
Waning Gibbous, 80% of the Moon is Illuminated
Jan 31
Waning Gibbous
Feb 3
Last Quarter
Feb 10
New
Feb 17
First Quarter
Feb 25
Full

Hourly Weather History & Observations

Time (EST) Temp. Windchill Dew Point Humidity Pressure Visibility Wind Dir Wind Speed Gust Speed Precip Events Conditions
12:05 AM 53.6 °F - 53.6 °F 100% 29.23 in 4.0 mi NNE 3.5 mph - 0.02 in Rain Rain
12:25 AM 53.6 °F - 53.6 °F 100% 29.24 in 2.5 mi WNW 5.8 mph - N/A Rain Heavy Rain
12:45 AM 53.6 °F - 53.6 °F 100% 29.25 in 1.8 mi West 8.1 mph - 0.14 in Rain Heavy Rain
1:05 AM 53.6 °F - 53.6 °F 100% 29.21 in 1.8 mi Calm Calm - 0.05 in Rain Heavy Rain
1:30 AM 53.6 °F - 53.6 °F 100% 29.26 in 4.0 mi West 10.4 mph - 0.06 in Rain Rain
1:50 AM 53.6 °F - 53.6 °F 100% 29.24 in 10.0 mi South 3.5 mph - 0.09 in Rain Light Rain
2:10 AM 53.6 °F - 53.6 °F 100% 29.21 in 10.0 mi South 3.5 mph - N/A Rain Light Rain
2:30 AM 53.6 °F - 53.6 °F 100% 29.22 in 10.0 mi WSW 5.8 mph - 0.01 in Rain Light Rain
3:00 AM 53.6 °F - 53.6 °F 100% 29.18 in 10.0 mi SW 4.6 mph - N/A   Overcast
3:20 AM 53.6 °F - 53.6 °F 100% 29.22 in 10.0 mi NW 28.8 mph 40.3 mph N/A Rain Rain
3:40 AM 51.8 °F - 48.2 °F 88% 29.23 in 10.0 mi West 18.4 mph 25.3 mph 0.02 in   Overcast
4:05 AM 50.0 °F - 41.0 °F 71% 29.31 in 10.0 mi West 24.2 mph 44.9 mph N/A   Overcast
4:25 AM 46.4 °F 38.5 °F 37.4 °F 71% 29.31 in 10.0 mi West 21.9 mph 35.7 mph N/A   Overcast
4:45 AM 46.4 °F 38.3 °F 37.4 °F 71% 29.33 in 10.0 mi West 23.0 mph 33.4 mph N/A   Overcast
5:05 AM 44.6 °F 37.2 °F 35.6 °F 71% 29.35 in 10.0 mi West 17.3 mph 24.2 mph N/A   Mostly Cloudy
5:30 AM 44.6 °F 36.6 °F 33.8 °F 66% 29.37 in 10.0 mi West 19.6 mph 31.1 mph N/A   Overcast
5:50 AM 44.6 °F 36.1 °F 33.8 °F 66% 29.41 in 10.0 mi West 21.9 mph 26.5 mph N/A   Overcast
6:47 AM 41.0 °F 30.7 °F 28.4 °F 61% 29.48 in 10.0 mi WNW 25.3 mph 40.3 mph N/A   Mostly Cloudy
7:50 AM 39.2 °F 27.6 °F 26.6 °F 61% 29.55 in 10.0 mi West 28.8 mph 35.7 mph N/A   Mostly Cloudy
8:50 AM 41.0 °F 31.6 °F 24.8 °F 53% 29.58 in 10.0 mi West 20.7 mph 28.8 mph N/A   Clear
9:50 AM 41.0 °F 31.6 °F 26.6 °F 57% 29.63 in 10.0 mi West 20.7 mph 33.4 mph N/A   Scattered Clouds
10:55 AM 41.0 °F 30.7 °F 39.2 °F 93% 29.67 in 10.0 mi West 25.3 mph 40.3 mph N/A   Scattered Clouds
11:50 AM 41.0 °F 31.9 °F 23.0 °F 49% 29.69 in 10.0 mi West 19.6 mph 36.8 mph N/A   Mostly Cloudy
12:50 PM 39.2 °F 28.3 °F 26.6 °F 61% 29.72 in 7.0 mi West 25.3 mph 39.1 mph N/A   Unknown
1:55 PM 39.2 °F 27.8 °F 23.0 °F 52% 29.73 in 10.0 mi West 27.6 mph 39.1 mph N/A   Mostly Cloudy
2:48 PM 37.4 °F 26.4 °F 19.4 °F 48% 29.76 in 10.0 mi West 23.0 mph 40.3 mph N/A   Mostly Cloudy
3:46 PM 37.4 °F 27.5 °F 17.6 °F 45% 29.78 in 10.0 mi West 18.4 mph 34.5 mph N/A   Overcast
4:55 PM 35.6 °F 27.5 °F 19.4 °F 52% 29.81 in 10.0 mi West 11.5 mph 18.4 mph N/A   Mostly Cloudy
6:45 PM 32.0 °F 20.1 °F 15.8 °F 51% 29.91 in 10.0 mi West 19.6 mph 28.8 mph N/A   Overcast
7:48 PM 30.2 °F 18.5 °F 12.2 °F 47% 29.93 in 10.0 mi West 17.3 mph 23.0 mph N/A   Mostly Cloudy
8:00 PM 30.2 °F 21.3 °F 14.0 °F 51% 29.92 in 10.0 mi West 10.4 mph 16.1 mph N/A   Scattered Clouds
8:20 PM 30.2 °F 20.2 °F 12.2 °F 47% 29.92 in 10.0 mi West 12.7 mph 17.3 mph N/A   Clear
8:40 PM 30.2 °F 21.3 °F 12.2 °F 47% 29.92 in 10.0 mi WSW 10.4 mph - N/A   Clear
9:05 PM 30.2 °F 22.6 °F 12.2 °F 47% 29.91 in 10.0 mi West 8.1 mph - N/A   Clear
9:25 PM 28.4 °F 19.1 °F 14.0 °F 55% 29.92 in 10.0 mi West 10.4 mph - N/A   Clear
9:45 PM 30.2 °F 23.4 °F 14.0 °F 51% 29.91 in 10.0 mi WSW 6.9 mph - N/A   Clear
10:05 PM 28.4 °F 19.1 °F 14.0 °F 55% 29.92 in 10.0 mi WSW 10.4 mph - N/A   Clear
10:30 PM 30.2 °F 20.2 °F 14.0 °F 51% 29.93 in 10.0 mi West 12.7 mph 18.4 mph N/A   Mostly Cloudy
10:50 PM 30.2 °F 20.8 °F 15.8 °F 55% 29.92 in 10.0 mi West 11.5 mph - N/A   Overcast
11:10 PM 30.2 °F 20.8 °F 15.8 °F 55% 29.93 in 10.0 mi WSW 11.5 mph 23.0 mph N/A   Scattered Clouds
11:35 PM 30.2 °F 21.3 °F 15.8 °F 55% 29.92 in 10.0 mi West 10.4 mph - N/A   Clear
11:55 PM 30.2 °F 21.9 °F 17.6 °F 60% 29.92 in 10.0 mi WSW 9.2 mph - N/A   Scattered Clouds